Meteo Giornale » Osservazioni meteo Stati Uniti (USA) » Poughkeepsie Dutchess
ore: 18:53 - Osservazioni Meteo Poughkeepsie Dutchess
Lat. 41° 37' N Lon. 73° 53' W Alt. 50 metri s.l.m.
21 °C
Coperto
Temp. 24 Ore
17 °C
24 °C
Nord
0 Km/h
Dew point 18 °C
Umidità 82 %
Visibilità 10 Km
Il sole sorge alle ore 06:20
Il sole tramonta alle ore 19:30
| Data e Ora | Cielo e Fenomeni | T °C | DP °C | Um. % | Pres. hPa | Vis. km | Vento km/h | |
|---|---|---|---|---|---|---|---|---|
| Oggi h: 18:53 | Coperto | 21 | 18 | 82 | 1018 | 10 | N 0 | |
| Oggi h: 17:53 | Coperto | 22 | 18 | 78 | 1018 | 14 | SO 9.3 | |
| Oggi h: 16:53 | Coperto | 23 | 18 | 73 | 1018 | 10 | N 0 | |
| Oggi h: 15:53 | Coperto | 24 | 18 | 69 | 1018 | 10 | N 0 | |
| Oggi h: 14:53 | Coperto | 24 | 18 | 69 | 1019 | 10 | SO 7.4 | |
| Oggi h: 13:53 | Coperto | 24 | 17 | 64 | 1019 | 10 | N 5.5 | |
| Oggi h: 12:53 | Nuvoloso | 24 | 17 | 64 | 1019 | 10 | N 0 | |
| Oggi h: 11:53 | Poco Nuvoloso | 24 | 17 | 64 | 1020 | 10 | N 5.5 | |
| Oggi h: 10:53 | Sereno | 22 | 17 | 73 | 1020 | 10 | N 0 | |
| Oggi h: 09:53 | Poco Nuvoloso | 22 | 18 | 78 | 1020 | 10 | N 5.5 | |
| Oggi h: 08:53 | Poco Nuvoloso | 21 | 18 | 82 | 1020 | 10 | N 7.4 | |
| Oggi h: 07:53 | Sereno | 18 | 17 | 93 | 1020 | 10 | N 0 | |
| Oggi h: 06:53 | Sereno | 17 | 17 | 100 | 1019 | 14 | N 5.5 | |
| Oggi h: 05:53 | Sereno | 17 | 16 | 93 | 1019 | 14 | N 0 | |
| Oggi h: 04:53 | Sereno | 17 | 17 | 100 | 1019 | 13 | N 0 | |
| Oggi h: 03:53 | Sereno | 17 | 17 | 100 | 1019 | 13 | N 0 | |
| Oggi h: 02:53 | Sereno | 18 | 17 | 93 | 1019 | 14 | N 0 | |
| Oggi h: 01:53 | Poco Nuvoloso | 19 | 18 | 93 | 1018 | 10 | N 5.5 | |
| Oggi h: 00:53 | Molto Nuvoloso | 20 | 18 | 88 | 1018 | 10 | N 5.5 | |
| Ieri h: 23:53 | Coperto | 21 | 19 | 88 | 1018 | 10 | NO 7.4 | |
| Ieri h: 22:53 | Foschia | 22 | 21 | 94 | 1018 | 8 | N 5.5 | |
| Ieri h: 21:53 | Pioggia | 22 | 21 | 94 | 1018 | 11 | N 5.5 | |
| Ieri h: 20:53 | Coperto | 23 | 21 | 88 | 1018 | 10 | SO 7.4 | |
| Ieri h: 19:53 | Coperto | 23 | 21 | 88 | 1017 | 10 | N 5.5 | |



